Flag for Germany Weather past 2 weeks in Seelze, Lower Saxony, Germany

Now
59 °F

Clear.


Feels Like: 58 °F
Forecast: 54 / 75 °F
Wind: 8 mph from East

Location: Hannover

Current Time: May 5, 2015 at 1:19:30 AM

Latest Report: May 5, 2015 at 12:50 AM


Visibility: 10 mi

Pressure: 29.68 "Hg

Humidity: 72%

Dew point: 50 °F

Location of SeelzeLocation

Historic Weather in Seelze — Graph

°F

Seelze temperature yesterday

Maximum temperature yesterday: 68 °F (at 2:50 PM)
Minimum temperature yesterday: 55 °F (at 3:50 AM)
Average temperature yesterday: 61 °F

Past Weeks' High & Low Weather Summary

 TemperatureHumidityPressure
High68 °F (May 4, 2:50 PM)100% (Apr 21, 2:20 AM)30.42 "Hg (Apr 21, 2:20 AM)
Low30 °F (Apr 28, 5:20 AM)32% (Apr 20, 4:20 PM)29.59 "Hg (May 3, 7:20 PM)
Average50 °F74%29.94 "Hg
* Reported Apr 20 12:20 AM — May 5 12:20 AM, Seelze, Weather by CustomWeather, © 2015

Note: Actual official high and low records may vary slightly from our data, if they occured in-between our weather recording intervals... More about our weather records

Advertising

Seelze weather history for previous 24 hours

 ConditionsComfort  
Time TempWeatherWind HumidityBarometerVisibility
12:20 AM
Tue, May 5
61 °FClear.9 mph68%29.68 "Hg10 mi
11:50 PM
Mon, May 4
57 °FClear.8 mph77%29.71 "Hg10 mi
10:50 PM57 °FClear.8 mph77%29.71 "Hg10 mi
10:20 PM57 °FClear.8 mph77%29.74 "Hg10 mi
9:50 PM57 °FSunny.5 mph77%29.74 "Hg10 mi
9:20 PM59 °FSunny.5 mph72%29.74 "Hg10 mi
8:50 PM61 °FSunny.3 mph68%29.77 "Hg10 mi
8:20 PM63 °FSunny.2 mph68%29.77 "Hg10 mi
7:50 PM64 °FSunny.2 mph60%29.77 "Hg10 mi
7:20 PM66 °FScattered clouds.5 mph60%29.77 "HgN/A
6:50 PM68 °FScattered clouds.6 mph56%29.77 "HgN/A
6:20 PM66 °FScattered clouds.8 mph60%29.77 "HgN/A
5:50 PM68 °FPartly sunny.9 mph53%29.77 "HgN/A
5:20 PM68 °FScattered clouds.9 mph53%29.77 "HgN/A
4:50 PM68 °FScattered clouds.8 mph53%29.80 "HgN/A
4:20 PM66 °FScattered clouds.12 mph56%29.80 "HgN/A
3:50 PM66 °FScattered clouds.12 mph56%29.80 "HgN/A
3:20 PM68 °FScattered clouds.13 mph64%29.77 "HgN/A
2:50 PM68 °FScattered clouds.14 mph56%29.77 "HgN/A
2:20 PM66 °FScattered clouds.14 mph60%29.77 "HgN/A
1:50 PM64 °FScattered clouds.12 mph68%29.80 "HgN/A
1:20 PM64 °FScattered clouds.12 mph68%29.80 "HgN/A
12:50 PM64 °FScattered clouds.9 mph73%29.77 "HgN/A
12:20 PM64 °FPartly sunny.12 mph68%29.77 "HgN/A
11:50 AM64 °FPartly sunny.9 mph73%29.77 "HgN/A
11:20 AM61 °FPartly sunny.12 mph77%29.77 "HgN/A
10:50 AM61 °FPartly sunny.9 mph83%29.77 "HgN/A
10:20 AM57 °FPartly sunny.7 mph88%29.77 "HgN/A
9:50 AM57 °FPartly sunny.12 mph82%29.77 "HgN/A
9:20 AM59 °FPartly sunny.13 mph77%29.77 "HgN/A
8:50 AM59 °FPartly sunny.10 mph77%29.74 "HgN/A
8:20 AM57 °FPartly sunny.12 mph82%29.74 "HgN/A
7:50 AM57 °FScattered clouds.12 mph82%29.74 "HgN/A
7:20 AM55 °FPassing clouds.12 mph88%29.71 "HgN/A
6:50 AM55 °FPassing clouds.10 mph82%29.71 "HgN/A
6:20 AM55 °FClear.10 mph82%29.68 "Hg10 mi
5:50 AM55 °FPassing clouds.12 mph82%29.68 "HgN/A
5:20 AM55 °FClear.12 mph82%29.68 "Hg10 mi
4:50 AM55 °FClear.10 mph88%29.65 "Hg10 mi
4:20 AM55 °FPassing clouds.10 mph88%29.65 "HgN/A
3:50 AM55 °FPassing clouds.9 mph94%29.65 "HgN/A
3:20 AM57 °FPassing clouds.8 mph94%29.65 "HgN/A
2:50 AM57 °FClear.9 mph94%29.65 "Hg10 mi
2:20 AM57 °FPassing clouds.9 mph94%29.62 "HgN/A
1:50 AM57 °FPassing clouds.8 mph94%29.62 "HgN/A
1:20 AM57 °FPartly cloudy.7 mph94%29.62 "HgN/A
Weather by CustomWeather, © 2015

See weather overviewHow to use our weather pages